Location: Seattle
(47.6064°N, 122.3308°W)
Time: 02:22:47
(UTC-07:00)

N. Korean satellite - Visible Passes

Search period start: 27 October 2020 00:00
Search period end: 05 November 2020 23:00
Orbit: 452 x 505 km, 97.2° (Epoch: 26 October)

Date Brightness Start Highest point End Pass type
(mag) Time Alt. Az. Time Alt. Az. Time Alt. Az.
27 Oct 8.4 06:17:34 10° NNE 06:20:43 33° E 06:23:50 10° SSE visible
27 Oct 9.1 18:29:08 10° SSW 18:32:13 27° W 18:35:17 10° NW visible
28 Oct 9.6 05:52:07 10° NE 05:54:25 17° E 05:56:43 10° SE visible
29 Oct 6.3 06:58:25 10° N 07:01:50 71° WNW 07:05:14 10° SSW visible
30 Oct 7.4 06:32:20 10° NNE 06:35:41 52° E 06:39:01 10° S visible
30 Oct 9.8 18:44:41 10° SW 18:47:14 18° W 18:49:45 10° NW visible
31 Oct 8.9 06:06:33 10° NE 06:09:26 25° E 06:12:18 10° SSE visible
31 Oct 8.4 18:17:39 10° SSW 18:20:56 36° W 18:24:12 10° NNW visible
01 Nov 10.0 04:41:28 10° ENE 04:43:04 13° E 04:44:40 10° ESE visible
01 Nov 6.7 06:13:24 10° N 06:16:41 44° WNW 06:19:57 10° SW visible
02 Nov 6.5 05:47:08 10° NNE 05:50:34 83° ESE 05:53:59 10° S visible
02 Nov 10.1 18:00:40 10° WSW 18:02:14 12° W 18:03:47 10° WNW visible
03 Nov 8.1 05:21:08 10° NNE 05:24:21 37° E 05:27:34 10° SSE visible
03 Nov 9.3 17:32:58 10° SSW 17:35:52 24° W 17:38:45 10° NW visible
04 Nov 9.4 04:55:32 10° NE 04:58:03 19° E 05:00:33 10° SE visible
05 Nov 6.4 06:01:58 10° N 06:05:23 63° WNW 06:08:46 10° SSW visible
